Location: Carrières
(48.9495°N, 2.0407°E)
Time: 13:09:27
(UTC+00:00)

deb Kosmos-2227 - Pass Details

Date: 30 May 2025
Orbit: 823 x 993 km, 71.2° (Epoch: 15 June)

Event Time Altitude Azimuth Distance (km) Brightness Sun altitude
Exits shadow 02:50:31 - 197° (SSW) 2,930 ? -8.6°
Reaches altitude 10° 02:51:11 10° 196° (SSW) 2,685 ? -8.5°
Maximum altitude 02:57:26 72° 114° (ESE) 1,031 ? -7.8°
Drops below altitude 10° 03:03:52 10° 31° (NNE) 2,765 ? -7.1°
Sets 03:06:28 0° 30° (NNE) 3,720 ? -6.8°
